CST,Max TemperatureF,Mean TemperatureF,Min TemperatureF,Max Dew PointF,MeanDew PointF,Min DewpointF,Max Humidity, Mean Humidity, Min Humidity, Max Sea Level PressureIn, Mean Sea Level PressureIn, Min Sea Level PressureIn, Max VisibilityMiles, Mean VisibilityMiles, Min VisibilityMiles, Max Wind SpeedMPH, Mean Wind SpeedMPH, Max Gust SpeedMPH,PrecipitationIn, CloudCover, Events, WindDirDegrees
2013-1-1,26,12,-2,25,10,-6,100,88,73,30.15,29.93,29.74,10,9,4,13,6,18,0.00,5,Snow,251
2013-1-2,32,18,3,30,12,0,100,89,78,30.25,29.99,29.72,10,10,2,21,11,28,0.00,4,Snow,323
2013-1-3,30,18,6,16,12,1,93,75,55,30.24,29.99,29.80,10,10,10,21,7,31,0.00,3,Snow,268
2013-1-4,26,14,1,18,13,0,100,78,64,30.10,30.02,29.87,10,10,0,13,7,17,0.00,0,Fog,303
2013-1-5,17,9,1,18,8,1,100,91,62,30.09,30.04,29.99,10,8,0,13,5,,0.00,7,Fog-Snow,321
2013-1-6,26,20,15,19,17,16,100,93,74,30.13,29.95,29.59,10,10,10,22,7,28,0.00,7,,182
2013-1-7,32,26,19,27,23,16,86,80,74,29.81,29.65,29.50,10,10,10,25,14,37,0.00,4,,266
2013-1-8,35,24,14,32,22,14,100,89,75,29.78,29.61,29.51,10,10,2,25,10,36,0.01,3,Snow,208
2013-1-9,28,24,19,25,18,12,93,81,68,30.11,29.97,29.62,10,10,4,29,17,46,0.00,3,Snow,243
2013-1-10,39,30,19,32,26,19,100,93,70,29.89,29.68,29.61,10,10,10,17,11,21,0.00,2,,158
2013-1-11,19,11,3,19,11,0,100,96,85,29.70,29.65,29.60,10,3,0,31,18,44,0.98,8,Rain-Snow,347
2013-1-12,3,-2,-7,0,-7,-13,100,80,71,30.15,29.97,29.68,10,5,1,34,21,52,0.59,5,Rain-Snow,324
2013-1-13,5,-3,-11,0,-6,-17,92,79,71,30.19,30.14,30.07,10,10,5,15,5,18,0.00,4,Snow,300
2013-1-14,5,-2,-7,0,-6,-11,92,81,72,30.24,30.19,30.09,10,10,10,9,4,,0.00,6,,260
2013-1-15,35,18,1,36,10,-2,100,81,63,30.09,29.77,29.42,10,9,3,25,5,32,0.03,5,Snow,207
2013-1-16,26,11,-4,27,-2,-15,100,77,51,30.27,30.00,29.54,10,10,5,25,16,33,0.00,8,Snow,360
2013-1-17,6,2,-2,1,-3,-8,92,80,61,30.38,30.28,30.06,10,10,2,13,6,18,0.00,5,Snow,93
2013-1-18,12,8,5,12,8,3,100,93,85,30.06,29.81,29.68,10,8,1,16,8,,0.05,8,Snow,87
2013-1-19,14,2,-9,14,-2,-17,100,83,65,30.34,30.03,29.62,10,7,1,30,11,39,0.08,5,Snow,322
2013-1-20,-4,-9,-14,-9,-17,-24,78,67,59,30.39,30.33,30.29,10,10,4,20,10,29,0.00,5,Snow,302
2013-1-21,-9,-14,-18,-20,-23,-26,70,65,59,30.33,30.28,30.26,10,10,10,17,11,22,0.00,2,,299
2013-1-22,3,-8,-18,-6,-15,-26,76,68,55,30.29,30.20,30.12,10,10,10,8,4,,0.00,3,,275
2013-1-23,1,-11,-23,-4,-18,-31,78,68,54,30.66,30.45,30.11,10,10,3,21,11,28,0.00,2,,335
2013-1-24,5,-8,-20,1,-14,-27,92,74,64,30.65,30.29,29.86,10,7,1,25,8,32,0.00,5,Snow,155
2013-1-25,10,-2,-13,9,-10,-18,92,78,65,30.29,30.15,29.83,10,9,2,24,11,33,0.02,5,Snow,324
2013-1-26,14,4,-7,9,0,-11,92,80,71,30.24,30.05,29.97,10,10,10,16,10,23,0.00,6,,154
2013-1-27,15,8,0,10,6,-2,100,91,73,29.98,29.88,29.78,10,10,10,7,2,,0.00,0,,52
2013-1-28,26,16,5,23,15,3,100,94,74,29.80,29.77,29.73,10,10,2,10,2,,0.30,5,Snow,273
2013-1-29,21,14,6,21,14,5,100,93,79,30.01,29.83,29.71,10,9,2,20,9,24,0.04,7,Snow,337
2013-1-30,8,0,-7,7,-2,-11,92,82,71,30.00,29.94,29.89,10,8,2,18,12,29,0.01,8,Snow,321
2013-1-31,-7,-14,-22,-13,-21,-29,84,69,58,30.27,30.19,29.99,10,8,2,20,14,29,0.01,5,Rain-Snow,312